Weather History for Wichita Jabara, KS

Change the Weather History Date:

Tuesday, April 8, 2014

  Actual Average (KICT) Record (KICT)
Temperature  
Mean Temperature 52 °F 54 °F  
Max Temperature 66 °F 65 °F 89 °F (1905)
Min Temperature 39 °F 42 °F 22 °F (2007)
Degree Days  
Heating Degree Days 14 12  
Month to date heating degree days 103  
Since 1 July heating degree days 4320  
Cooling Degree Days 0 1  
Month to date cooling degree days 1  
Year to date cooling degree days 3  
Growing Degree Days 2 (Base 50)    
Moisture  
Dew Point 28 °F    
Average Humidity 44    
Maximum Humidity 82    
Minimum Humidity 19    
Precipitation  
Precipitation 0.00 in 0.07 in 1.78 in (1922)
Month to date precipitation 0.60  
Year to date precipitation 5.30  
Snow  
Snow 0.00 in 0.00 in 3.90 in (1938)
Month to date snowfall 0.1  
Since 1 July snowfall 14.8  
Snow Depth -    
Sea Level Pressure  
Sea Level Pressure 30.07 in    
Wind  
Wind Speed 16 mph (NNW)    
Max Wind Speed 28 mph    
Max Gust Speed 39 mph    
Visibility 10 miles    
Events      
T = Trace of Precipitation, MM = Missing Value Source: NWS Daily Summary

Daily Weather History Graph

Daily Weather History Graph

Search for Another Location

Airport:

Trip Planner

Search our weather history database for the weather conditions in past years. The results will help you decide how hot, cold, wet, or windy it might be!

Date:

Astronomy

Apr. 08, 2014 Rise Set
Actual Time 7:03 AM CDT 7:58 PM CDT
Civil Twilight 6:37 AM CDT 8:24 PM CDT
Nautical Twilight 6:05 AM CDT 8:56 PM CDT
Astronomical Twilight 5:32 AM CDT 9:29 PM CDT
Moon 1:59 PM CDT (4/8) 3:11 AM CDT (4/8)
Length of Visible Light 13h 47m
Length of Day
12h 54m
Waxing Gibbous, 63% of the Moon is Illuminated
Apr 8
Waxing Gibbous
Apr 15
Full
Apr 22
Last Quarter
Apr 29
New
May 6
First Quarter

Hourly Weather History & Observations

Time (CDT) Temp. Windchill Dew Point Humidity Pressure Visibility Wind Dir Wind Speed Gust Speed Precip Events Conditions
12:54 AM 46.0 °F 39.6 °F 37.0 °F 71% 29.99 in 10.0 mi NNW 15.0 mph - N/A   Clear
1:54 AM 45.0 °F 38.2 °F 37.0 °F 74% 29.99 in 10.0 mi NNW 15.0 mph - N/A   Scattered Clouds
2:54 AM 46.9 °F - 35.1 °F 63% 29.99 in 10.0 mi NNW 16.1 mph 26.5 mph N/A   Overcast
3:54 AM 43.0 °F 36.0 °F 35.1 °F 74% 30.00 in 10.0 mi NW 13.8 mph - N/A   Clear
4:54 AM 41.0 °F 33.9 °F 34.0 °F 76% 30.01 in 10.0 mi NW 12.7 mph - N/A   Clear
5:54 AM 39.0 °F 31.0 °F 34.0 °F 82% 30.03 in 10.0 mi NW 13.8 mph - N/A   Clear
7:54 AM 41.0 °F 33.1 °F 33.1 °F 73% 30.09 in 10.0 mi NW 15.0 mph - N/A   Clear
8:54 AM 46.0 °F 39.0 °F 34.0 °F 63% 30.11 in 10.0 mi NNW 17.3 mph - N/A   Clear
9:54 AM 52.0 °F - 34.0 °F 50% 30.11 in 10.0 mi NNW 19.6 mph - N/A   Clear
10:54 AM 55.9 °F - 32.0 °F 40% 30.12 in 10.0 mi NNW 21.9 mph 29.9 mph N/A   Clear
11:54 AM 59.0 °F - 30.0 °F 33% 30.11 in 10.0 mi NNW 24.2 mph 35.7 mph N/A   Clear
12:54 PM 60.1 °F - 28.9 °F 31% 30.10 in 10.0 mi NNW 24.2 mph 38.0 mph N/A   Mostly Cloudy
1:54 PM 62.1 °F - 30.0 °F 30% 30.09 in 10.0 mi North 27.6 mph 39.1 mph N/A   Scattered Clouds
2:54 PM 64.0 °F - 27.0 °F 25% 30.07 in 10.0 mi North 26.5 mph 34.5 mph N/A   Partly Cloudy
3:54 PM 64.0 °F - 26.1 °F 24% 30.06 in 10.0 mi North 21.9 mph 31.1 mph N/A   Clear
4:54 PM 64.9 °F - 24.1 °F 21% 30.06 in 10.0 mi North 20.7 mph 26.5 mph N/A   Clear
5:54 PM 64.0 °F - 21.9 °F 20% 30.07 in 10.0 mi NNW 15.0 mph - N/A   Clear
6:54 PM 62.1 °F - 19.0 °F 19% 30.09 in 10.0 mi North 12.7 mph - N/A   Clear
7:54 PM 53.1 °F - 19.0 °F 26% 30.11 in 10.0 mi North 9.2 mph - N/A   Clear
8:54 PM 51.1 °F - 17.1 °F 26% 30.12 in 10.0 mi North 5.8 mph - N/A   Clear
9:54 PM 48.0 °F - 16.0 °F 28% 30.14 in 10.0 mi NE 3.5 mph - N/A   Clear
10:54 PM 46.0 °F - 17.1 °F 31% 30.14 in 10.0 mi Calm Calm - N/A   Clear
11:54 PM 46.9 °F - 16.0 °F 29% 30.12 in 10.0 mi SE 3.5 mph - N/A   Clear